Theta_e
294 294 293 291 290 291 291 291 290 290 290 288 288 287 286 288 286 285 285 284 283 283 281 280 281 281 282 282 283 283 281 280 281 280 280 282 284 286 285 287 288 288 289
292 293 292 291 290 290 291 290 290 289 290 289 289 287 286 286 285 285 284 283 282 282 281 280 280 281 281 281 282 282 279 280 281 279 279 277 280 283 284 286 286 287 289
293 292 291 291 289 289 290 290 289 289 289 289 288 286 285 284 284 283 282 282 282 282 281 280 280 280 281 281 281 280 279 278 281 282 279 276 275 278 283 284 285 286 287
294 293 292 290 289 289 290 290 290 289 289 288 286 284 283 282 282 281 281 281 281 280 281 281 280 280 281 280 281 282 279 281 279 281 283 283 282 277 276 281 283 285 286
294 293 292 291 290 290 290 290 289 289 287 286 286 285 283 282 281 281 280 280 280 280 280 280 280 280 280 280 280 280 280 280 280 280 281 282 282 281 278 276 279 284 286
292 293 292 291 290 289 289 289 288 287 286 285 285 284 283 281 280 279 278 278 279 279 278 279 279 280 280 280 281 280 280 280 280 281 281 281 279 279 278 277 279 280 284
291 291 290 290 289 288 288 289 288 285 285 284 283 283 282 280 279 278 277 277 277 276 276 278 278 279 280 280 281 279 280 280 280 280 280 281 282 282 281 280 279 280 284
291 290 290 290 289 288 288 289 286 284 283 283 282 282 281 280 278 277 276 276 275 275 277 277 278 279 280 280 280 279 279 280 280 279 280 280 282 283 282 281 280 279 281
290 290 290 289 288 287 288 288 286 284 283 282 281 280 279 279 277 276 276 276 276 276 277 278 278 279 279 280 279 279 278 279 279 279 279 280 282 283 283 283 284 282 278
289 289 289 288 288 288 288 288 286 283 283 282 280 279 278 277 277 276 276 275 276 276 276 277 277 278 279 279 279 279 278 278 279 279 279 279 282 282 283 283 285 284 283
289 289 288 288 288 287 288 287 285 283 282 281 279 278 277 277 276 276 276 275 276 276 276 277 277 278 278 279 279 278 277 277 278 278 278 279 282 281 282 284 284 284 284
290 288 288 287 286 285 286 286 285 284 282 281 279 278 277 277 275 275 275 276 276 276 276 277 277 277 277 278 278 277 276 277 277 277 277 278 281 280 281 284 283 283 284
289 288 286 286 285 285 285 285 285 283 282 280 278 277 276 276 275 276 276 275 275 275 276 276 275 276 277 277 278 277 276 276 276 277 277 278 280 280 283 283 282 283 284
287 287 286 285 284 284 283 283 283 282 281 279 278 276 276 276 275 275 275 273 274 273 273 274 274 275 276 279 278 277 276 276 276 277 278 278 280 280 282 283 283 283 282
287 285 284 284 283 283 283 283 283 282 280 278 276 275 276 275 274 273 273 273 274 272 271 271 271 273 276 280 278 276 275 276 275 277 278 279 281 283 283 283 283 282 281
285 286 285 284 284 284 283 284 283 280 279 277 275 275 274 273 272 272 272 271 271 270 271 270 270 271 277 281 281 278 275 276 276 276 277 278 280 282 283 284 285 284 282
287 286 286 285 285 285 284 283 281 279 277 276 275 274 273 272 271 272 271 271 270 271 270 268 271 270 274 281 280 278 276 275 275 277 277 278 279 281 281 282 283 283 284
286 285 285 283 282 283 283 282 280 278 276 275 274 273 272 271 271 271 271 272 270 270 271 269 270 270 273 280 280 278 276 275 275 277 276 278 278 280 280 279 279 280 280
283 284 285 280 280 282 281 280 277 276 276 274 273 272 272 270 270 270 271 272 272 271 271 271 270 269 269 280 280 277 275 276 274 277 277 278 278 281 282 278 277 277 279
278 278 277 277 279 279 280 278 276 275 274 273 272 271 272 271 271 271 272 273 272 273 274 273 270 269 269 278 279 277 275 273 274 273 277 278 279 281 281 278 277 275 277
277 276 276 278 278 279 278 276 276 274 275 273 272 272 271 271 272 272 273 273 272 273 271 271 269 268 269 271 278 278 274 272 272 273 274 276 280 280 281 280 278 277 278
276 275 277 276 277 278 278 276 275 275 274 272 271 271 271 272 272 272 272 273 272 271 271 270 270 271 271 275 276 277 277 275 272 271 272 275 279 280 280 279 279 278 277
280 277 277 276 274 276 278 276 275 274 272 271 270 270 271 272 272 272 272 272 272 272 271 272 270 270 272 273 275 276 276 276 271 273 275 277 278 277 275 278 277 273 272
280 277 277 275 275 276 277 277 274 273 271 270 269 270 270 271 271 273 273 272 272 272 272 272 270 269 271 272 273 273 272 273 271 271 270 275 275 275 274 272 273 272 271
278 277 276 275 274 275 275 274 272 272 271 270 270 270 271 271 271 272 272 272 273 274 272 271 270 268 267 272 274 273 271 268 272 265 264 266 266 267 267 268 270 270 270
275 275 275 275 274 275 273 272 272 272 271 270 270 270 270 270 271 271 272 276 276 278 278 278 273 274 275 275 275 275 274 275 273 262 259 263 264 264 265 266 267 268 268
Wind_Speed
11 12 11 11 10 10 10 10 9 8 6 4 4 3 4 3 3 4 4 5 5 5 6 4 5 6 6 8 10 8 13 11 13 12 14 11 8 10 17 11 13 16 18
11 13 13 12 13 12 11 10 10 8 7 5 4 2 3 3 4 3 4 5 5 5 6 6 5 6 6 7 9 9 8 7 12 13 11 12 14 11 14 11 14 19 16
15 16 17 15 13 13 12 11 10 9 7 6 5 4 4 2 2 2 3 3 5 5 5 6 5 6 5 6 8 6 11 10 11 14 7 8 11 22 11 18 16 20 16
11 16 17 17 16 13 10 10 9 9 8 8 6 6 4 4 2 3 2 2 4 4 5 6 6 5 4 6 7 8 4 8 12 10 8 8 12 11 18 16 18 18 18
10 15 18 17 14 12 11 9 8 8 7 7 7 5 4 4 3 3 2 2 3 4 5 6 6 6 4 6 7 7 6 4 7 8 10 11 10 11 11 18 22 20 16
8 10 12 13 12 10 8 8 9 8 8 7 6 7 8 6 4 3 3 2 2 3 6 5 5 6 5 6 7 6 7 7 8 8 9 10 11 14 13 15 18 20 19
7 9 12 14 13 13 10 10 10 8 8 8 6 6 7 7 7 4 3 3 2 3 4 5 5 4 5 6 7 6 7 8 8 9 9 9 9 10 8 11 15 17 16
6 8 9 11 12 13 11 12 9 8 9 8 8 7 8 4 5 4 3 3 2 3 3 4 5 6 6 6 6 4 6 8 6 9 9 9 10 11 11 10 15 15 12
8 8 8 9 9 10 13 12 11 9 9 8 7 6 6 7 6 6 4 3 4 1 3 4 5 6 6 6 6 5 6 7 6 6 9 8 10 11 11 11 11 11 13
8 8 8 8 8 9 10 10 11 12 10 9 8 7 7 7 6 6 5 4 4 3 4 4 5 5 6 6 6 5 5 7 6 7 9 9 11 12 11 11 11 10 10
8 7 7 7 7 8 10 10 11 12 12 11 8 8 7 7 6 6 5 4 4 3 4 4 5 5 6 7 6 7 7 8 8 9 10 11 13 11 12 10 11 11 10
8 8 7 8 8 8 8 10 11 12 11 12 10 10 10 8 7 6 5 5 4 4 3 4 5 5 6 8 7 8 7 8 9 10 11 11 10 13 13 11 14 12 11
8 8 7 7 7 8 8 10 10 11 11 12 12 11 10 9 8 7 6 5 4 3 4 5 5 5 6 6 6 7 7 7 7 8 9 11 13 13 12 12 12 11 10
7 7 7 8 8 9 9 9 9 11 13 12 12 11 10 9 8 7 7 5 4 4 4 3 4 4 6 6 7 9 7 6 7 8 9 9 12 13 12 12 11 12 10
7 9 9 9 9 11 10 10 10 14 14 13 11 10 10 10 9 8 7 6 5 4 4 3 4 4 4 6 7 7 6 6 7 7 9 9 12 21 19 9 10 11 9
9 11 10 9 12 13 13 13 13 14 14 13 12 11 10 9 9 8 8 6 6 4 5 3 3 4 5 13 14 9 5 7 8 9 9 10 12 16 23 21 20 15 11
12 10 11 12 12 13 13 14 11 12 12 13 12 11 10 9 9 8 8 7 6 4 5 3 4 3 5 13 13 10 5 6 6 9 10 10 10 13 14 17 17 13 19
7 7 7 5 7 10 13 15 16 16 14 13 13 13 12 10 9 8 7 7 5 5 4 4 4 4 4 12 13 9 4 4 4 7 8 11 13 15 16 12 12 11 11
3 3 3 3 6 10 10 12 11 11 12 13 13 11 12 12 10 9 8 7 5 5 4 4 5 4 4 11 12 7 3 4 4 7 6 9 12 20 22 12 13 12 10
2 3 3 4 9 8 13 14 13 12 12 14 12 11 11 11 11 9 9 6 4 6 5 6 4 4 3 9 12 8 4 4 3 5 7 14 15 18 20 10 10 12 10
3 2 5 6 9 11 13 13 13 15 12 10 11 10 10 11 11 10 8 7 5 6 4 5 4 2 2 5 10 11 4 2 3 4 5 6 17 18 19 18 11 11 9
3 3 6 5 7 11 12 12 12 10 11 13 12 12 12 9 9 12 10 8 8 7 4 4 3 2 1 4 7 9 8 6 2 3 4 6 15 16 17 14 19 17 11
5 5 7 6 1 6 8 11 10 12 13 14 13 12 11 10 10 11 11 8 7 6 5 4 3 2 1 1 6 6 7 7 3 2 7 11 13 15 11 18 19 11 7
6 5 7 7 5 5 6 7 11 13 14 14 13 12 12 11 10 8 8 7 7 6 5 5 4 2 2 1 1 3 3 6 4 6 5 8 11 13 11 8 9 7 7
5 7 7 5 5 6 6 9 11 12 11 12 12 13 10 12 10 7 7 7 5 7 7 4 4 4 3 1 4 5 2 1 4 4 4 5 5 8 8 8 7 7 8
4 5 6 6 7 8 7 11 12 13 14 12 10 11 10 10 9 9 8 11 11 14 13 14 8 5 8 7 7 9 7 7 7 5 3 4 5 7 7 8 8 8 9
Wind_Direction
178 178 174 163 165 167 165 169 165 170 154 158 163 183 190 173 134 101 90 60 13 12 345 351 339 339 333 329 341 339 344 343 339 329 335 328 312 326 329 319 326 328 324
171 173 171 170 174 173 171 170 172 168 165 167 179 114 118 113 114 134 122 86 38 19 1 349 340 330 331 336 344 353 348 344 349 344 315 332 328 336 327 332 332 328 324
179 177 177 178 175 179 176 176 172 167 165 161 115 90 68 68 147 166 81 81 63 30 12 347 338 330 332 345 341 2 359 345 348 354 345 335 330 321 357 339 331 329 326
179 178 177 182 178 181 174 172 170 161 161 146 143 158 173 167 113 106 100 80 85 49 25 350 340 337 335 344 338 344 341 331 344 342 341 322 314 328 324 334 333 331 328
179 178 179 180 179 173 173 171 159 151 147 148 164 162 140 107 118 118 126 96 80 68 39 352 343 347 343 338 330 329 331 321 334 331 336 337 320 324 322 320 333 329 337
174 157 163 162 171 165 157 159 157 152 144 150 168 159 144 138 137 118 84 65 74 55 39 354 350 347 340 340 333 330 337 346 337 332 343 341 333 335 331 326 329 326 334
162 152 153 164 168 166 163 163 158 152 144 151 157 149 131 134 125 120 110 78 45 44 14 357 352 339 337 342 330 338 340 348 339 341 343 336 340 325 323 324 326 327 335
169 174 162 163 170 169 163 162 154 147 147 147 157 138 128 122 115 106 115 104 76 61 352 349 351 345 343 341 333 334 346 343 338 333 346 336 345 333 330 332 331 334 343
174 175 169 160 164 160 166 163 153 146 151 147 140 135 131 127 129 126 116 110 92 76 3 8 360 348 348 350 339 340 343 339 335 342 347 347 342 335 335 335 338 336 340
163 172 172 164 159 157 157 155 155 152 153 147 142 143 139 127 127 129 120 109 94 59 36 15 0 0 353 345 341 343 345 343 340 355 349 356 343 340 340 340 347 344 344
172 179 169 161 148 148 158 155 157 152 157 150 144 140 136 131 133 127 124 120 102 61 46 13 13 14 350 332 351 349 356 344 347 350 354 356 352 343 341 345 351 353 349
170 168 162 155 154 154 159 161 163 163 161 150 145 143 141 141 136 133 131 116 99 70 45 20 32 17 345 331 7 357 351 348 355 352 354 352 355 350 344 348 356 356 353
144 154 162 167 164 163 166 167 166 161 153 147 149 150 151 149 139 132 125 100 98 55 43 47 34 1 331 337 9 357 347 348 357 350 353 343 356 352 350 350 359 355 355
172 167 184 184 172 172 168 162 162 155 154 154 155 154 157 145 139 135 127 124 129 103 75 42 29 349 327 342 24 1 344 352 0 354 353 345 356 350 358 349 0 352 358
186 205 206 191 184 178 173 168 162 156 156 153 157 157 147 142 141 138 136 130 122 122 100 70 29 347 350 345 26 8 344 2 3 357 355 345 354 359 6 358 360 0 360
227 228 217 195 190 183 179 172 165 160 158 151 158 151 145 144 146 143 142 130 122 121 99 71 55 14 12 7 20 16 4 18 11 7 356 344 352 356 5 7 9 16 7
227 231 222 208 195 182 167 169 152 148 155 152 151 148 147 155 153 145 139 142 129 129 107 75 59 32 339 16 27 30 23 31 13 21 358 348 0 354 1 5 5 9 13
247 235 230 210 171 158 162 158 156 160 159 157 159 160 156 152 147 145 144 141 131 136 119 94 57 39 341 20 32 36 33 29 26 23 356 348 1 2 2 3 7 4 1
242 271 291 171 124 145 143 137 143 143 157 167 168 161 153 153 152 152 145 141 145 128 116 106 80 47 340 21 36 32 30 22 19 24 12 352 4 5 9 5 5 5 359
160 113 113 98 119 136 144 145 155 156 167 170 171 158 156 152 150 146 145 141 141 133 124 110 97 73 4 0 36 51 27 15 358 360 15 7 9 11 12 13 358 4 354
103 106 91 129 140 144 146 153 162 179 163 151 149 150 148 147 145 141 141 141 138 121 117 117 116 86 38 350 42 47 44 32 356 7 9 355 8 14 15 18 12 6 359
137 110 117 131 141 147 153 156 168 154 139 142 149 153 154 151 146 144 139 147 137 137 145 138 138 138 288 72 46 47 48 45 34 19 346 341 9 17 18 23 20 17 11
150 130 127 119 67 151 164 162 153 139 141 143 152 152 148 148 151 150 145 148 149 150 158 150 125 123 87 20 64 53 53 45 56 1 1 4 19 21 16 18 22 14 10
170 144 135 145 163 174 165 158 141 146 150 150 155 150 148 149 154 154 149 157 156 156 159 144 141 135 83 36 16 67 40 41 40 21 356 24 32 34 21 359 11 13 8
156 153 160 165 170 169 149 138 144 149 155 152 156 156 152 154 155 155 153 159 159 161 159 151 146 129 114 95 89 96 83 106 53 42 21 16 11 17 8 358 3 9 7
148 161 158 156 167 170 147 148 157 161 154 154 165 162 156 156 153 147 143 159 158 162 155 141 124 119 133 113 96 91 78 82 93 52 36 35 22 23 3 358 355 4 3